Regional Weather Roundup
Issued by NWS Cleveland, OH

Home | Current Version | Previous Version | Text Only | Print | Product List | Glossary On
Versions: 1 2 3 4 5 6 7 8 9 10 11 12 13 14 15 16 17 18 19 20 21 22 23 24 25 26 27 28 29 30 31 32 33 34 35 36 37 38 39 40 41 42 43 44 45 46 47 48 49 50
000
ASUS41 KCLE 010010
RWRCLE
OHIO REGIONAL WEATHER ROUNDUP
NATIONAL WEATHER SERVICE WILMINGTON, OH
800 PM EDT MON AUG 31 2015

NOTE: "FAIR" INDICATES FEW OR NO CLOUDS BELOW 12,000 FEET WITH NO
SIGNIFICANT WEATHER AND/OR OBSTRUCTIONS TO VISIBILITY.

OHZ001>008-015>018-024>027-034-035-043-044-010100-
   NORTHWEST OHIO

CITY           SKY/WX    TMP DP  RH WIND       PRES   REMARKS
DEFIANCE       CLEAR     82  69  64 CALM      30.04S
FINDLAY        PTCLDY    79  71  76 S3        30.05R
TOLEDO EXPRESS CLEAR     77  70  79 CALM      30.03S
TOLEDO EXEC    CLEAR     82  67  60 W3        30.04S
LIMA           PTCLDY    80  69  69 S5        30.06S
$$

OHZ009>014-019>023-028>033-038-089-010100-
   NORTHEAST OHIO

CITY           SKY/WX    TMP DP  RH WIND       PRES   REMARKS
CLE-HOPKINS    PTCLDY    78  66  66 NE3       30.08R
CLE-LAKEFRONT  CLEAR     77  66  68 NE5       30.04F
CUY CO. ARPT   PTCLDY    77  68  73 NE6       30.07S
LORAIN-ELYRIA  CLEAR     76  69  79 E3        30.06S
ASHTABULA      CLEAR     72  68  87 CALM      30.07F
AKRON-CANTON   MOCLDY    82  66  58 W3        30.07S
WOOSTER        PTCLDY    76  71  85 CALM      30.07S
MANSFIELD      PTCLDY    80  66  62 NW3       30.08S
YOUNGSTOWN     PTCLDY    78  65  63 N7        30.08R
$$

OHZ042-051>053-060>062-070>072-077>081-010100-
  SOUTHWEST OHIO

CITY           SKY/WX    TMP DP  RH WIND       PRES   REMARKS
CINC-COVINGTON PTCLDY    82  65  56 SW3       30.08R
CINC-LUNKEN    MOCLDY    79  70  74 CALM      30.06S
HAMILTON       CLEAR     76  71  85 SW3       30.07S
DAYTON         MOCLDY    76  70  82 SE5       30.08F
WRIGHT-PAT AFB PTCLDY    76  70  83 S5        30.07S
DAYTON GENERAL MOCLDY    79  68  69 E5        30.07S THUNDER
WILMINGTON     PTCLDY    75  67  76 S3        30.08S
$$

OHZ036-037-039>041-045>050-054>059-063>069-073>076-082>088-010100-
  CENTRAL AND SOUTHEAST OHIO

CITY           SKY/WX    TMP DP  RH WIND       PRES   REMARKS
COLUMBUS       MOCLDY    77  66  68 N3        30.06S
OSU AIRPORT    MOCLDY    75  68  78 E5        30.07S
BOLTON FIELD   PTCLDY    75  71  86 CALM      30.07S
RICKENBACK AFB PTCLDY    76  68  74 CALM      30.06S
NEWARK         PTCLDY    76  69  79 W3        30.07R
MARION         CLEAR     78  68  71 CALM      30.07R
LANCASTER      PTCLDY    77  67  71 CALM      30.08R
ZANESVILLE     NOT AVBL
NEW PHILLY     PTCLDY    77  69  76 CALM      30.06S
$$


USA.gov is the U.S. government's official web portal to all federal, state and local government web resources and services.